Kaneohe MCBH, HI

9:11 AM HST on March 27, 2017 (GMT -1000)
Kaneohe Bay Marine Corps Air Facility

Weather History for PHNG - November, 2012

Change the Weather History Date:

Friday, November 9, 2012

  Actual Average Record
Temperature  
Mean Temperature 79 °F -  
Max Temperature 83 °F 79 °F 86 °F (2002)
Min Temperature 75 °F 70 °F 66 °F (2014)
Cooling Degree Days 14    
Growing Degree Days 29 (Base 50)    
Moisture  
Dew Point 67 °F    
Average Humidity 71    
Maximum Humidity 79    
Minimum Humidity 61    
Precipitation  
Precipitation 0.00 in - - ()
Sea Level Pressure  
Sea Level Pressure 30.07 in    
Wind  
Wind Speed 9 mph (ENE)    
Max Wind Speed 14 mph    
Max Gust Speed 23 mph    
Visibility 10 miles    
Events Rain    
Averages and records for this station are not official NWS values.
T = Trace of Precipitation, MM = Missing Value Source: NWS Daily Summary

Daily Weather History Graph

Daily Weather History Graph

Search for Another Location

Airport or City:

Trip Planner

Search our weather history database for the weather conditions in past years. The results will help you decide how hot, cold, wet, or windy it might be!

Date:

Astronomy

Nov. 09, 2012 Rise Set
Actual Time 6:38 AM HST 5:50 PM HST
Civil Twilight 6:15 AM HST 6:13 PM HST
Nautical Twilight 5:48 AM HST 6:40 PM HST
Astronomical Twilight 5:22 AM HST 7:07 PM HST
Moon 2:22 AM HST (11/9) 2:42 PM HST (11/9)
Length of Visible Light 11h 58m
Length of Day
11h 11m
Waning Crescent, 21% of the Moon is Illuminated
Nov 9
Waning Crescent
Nov 13
New
Nov 20
First Quarter
Nov 28
Full
Dec 6
Last Quarter

Hourly Weather History & Observations

Time (HST) Temp. Heat Index Dew Point Humidity Pressure Visibility Wind Dir Wind Speed Gust Speed Precip Events Conditions
12:57 AM 75.2 °F - 66.9 °F 75% 30.09 in 10.0 mi NE 9.2 mph - N/A   Scattered Clouds
1:57 AM 75.2 °F - 68.0 °F 78% 30.07 in 10.0 mi ENE 9.2 mph - N/A   Scattered Clouds
2:57 AM 75.2 °F - 68.0 °F 78% 30.06 in 10.0 mi ENE 6.9 mph 16.1 mph N/A   Partly Cloudy
3:57 AM 75.2 °F - 66.9 °F 75% 30.04 in 10.0 mi ENE 6.9 mph - N/A   Scattered Clouds
4:57 AM 75.2 °F - 68.0 °F 78% 30.04 in 10.0 mi ENE 8.1 mph 16.1 mph N/A   Scattered Clouds
5:57 AM 75.2 °F - 66.9 °F 75% 30.06 in 10.0 mi ENE 6.9 mph - N/A   Scattered Clouds
6:04 AM 75.2 °F - 66.2 °F 73% 30.08 in 6.2 mi East 8.1 mph - N/A   Mostly Cloudy
6:14 AM 75.2 °F - 66.2 °F 73% 30.08 in 6.2 mi ENE 9.2 mph - N/A   Partly Cloudy
6:57 AM 75.2 °F - 66.9 °F 75% 30.08 in 10.0 mi ENE 5.8 mph - N/A   Scattered Clouds
7:57 AM 77.0 °F - 69.8 °F 78% 30.10 in 10.0 mi ENE 6.9 mph 17.3 mph 0.00 in Rain Light Rain
8:57 AM 77.0 °F - 69.8 °F 78% 30.12 in 10.0 mi ENE 12.7 mph 20.7 mph 0.00 in   Scattered Clouds
9:57 AM 77.0 °F - 66.9 °F 71% 30.12 in 10.0 mi ENE 11.5 mph 20.7 mph N/A   Partly Cloudy
10:57 AM 81.3 °F 83.6 °F 66.9 °F 61% 30.10 in 10.0 mi ENE 12.7 mph 18.4 mph N/A   Scattered Clouds
11:57 AM 81.3 °F 83.6 °F 66.9 °F 61% 30.08 in 10.0 mi ENE 13.8 mph 19.6 mph N/A   Partly Cloudy
12:57 PM 81.7 °F 84.2 °F 66.9 °F 61% 30.04 in 10.0 mi ENE 12.7 mph 20.7 mph N/A   Clear
1:57 PM 83.1 °F 86.6 °F 68.7 °F 62% 30.02 in 10.0 mi ENE 12.7 mph 20.7 mph N/A   Partly Cloudy
2:57 PM 81.1 °F 84.2 °F 68.7 °F 66% 30.01 in 10.0 mi ENE 12.7 mph 23.0 mph N/A   Scattered Clouds
3:57 PM 81.1 °F 83.5 °F 66.9 °F 62% 30.01 in 10.0 mi ENE 11.5 mph 20.7 mph N/A   Clear
4:57 PM 79.5 °F - 66.9 °F 65% 30.03 in 10.0 mi ENE 9.2 mph 19.6 mph N/A   Partly Cloudy
5:57 PM 78.1 °F - 66.0 °F 66% 30.04 in 10.0 mi ENE 10.4 mph - N/A   Scattered Clouds
6:57 PM 77.7 °F - 66.0 °F 67% 30.06 in 10.0 mi East 12.7 mph 17.3 mph N/A   Clear
7:57 PM 76.3 °F - 64.9 °F 68% 30.08 in 10.0 mi ENE 10.4 mph - N/A   Scattered Clouds
8:57 PM 75.9 °F - 64.9 °F 69% 30.09 in 10.0 mi NE 12.7 mph 17.3 mph N/A   Partly Cloudy
9:57 PM 75.9 °F - 66.0 °F 71% 30.09 in 10.0 mi ENE 10.4 mph 17.3 mph N/A   Partly Cloudy
10:57 PM 75.7 °F - 64.9 °F 69% 30.09 in 10.0 mi NE 9.2 mph 21.9 mph N/A   Mostly Cloudy
11:57 PM 75.6 °F - 68.7 °F 79% 30.08 in 10.0 mi ENE 9.2 mph - 0.00 in   Mostly Cloudy